| time (UTC) | temp F | wind direction | speed MPH | gust MPH | rain 1hr in | rain 24hr in | rain mn in | humidity % | barometer mb |
| 20260906213332 | 85 | 178 | 0.0 | 4.0 | 0.00 | 0.00 | 0.00 | 32 | 369.7 |
| 20260906212831 | 85 | 89 | 0.0 | 4.0 | 0.00 | 0.00 | 0.00 | 32 | 369.7 |
| 20260906212331 | 84 | 226 | 0.0 | 3.0 | 0.00 | 0.00 | 0.00 | 33 | 369.7 |
| 20260906211835 | 83 | 130 | 0.0 | 1.0 | 0.00 | 0.00 | 0.00 | 34 | 369.7 |
| 20260906211619 | 82 | 24 | 0.0 | 1.0 | 0.00 | 0.00 | 0.00 | 32 | 370.0 |
| 20260906211119 | 82 | 137 | 0.0 | 1.0 | 0.00 | 0.00 | 0.00 | 32 | 370.1 |
| 20260906210334 | 82 | 139 | 0.0 | 2.0 | 0.00 | 0.00 | 0.00 | 31 | 370.3 |
| 20260906205835 | 83 | 194 | 0.0 | 3.0 | 0.00 | 0.00 | 0.00 | 31 | 370.3 |
| 20260906205335 | 84 | 160 | 0.0 | 5.0 | 0.00 | 0.00 | 0.00 | 30 | 370.3 |
| 20260906204833 | 84 | 171 | 0.0 | 5.0 | 0.00 | 0.00 | 0.00 | 33 | 370.3 |
| 20260906204335 | 85 | 213 | 2.0 | 5.0 | 0.00 | 0.00 | 0.00 | 32 | 370.4 |
| 20260906203834 | 85 | 301 | 0.0 | 7.0 | 0.00 | 0.00 | 0.00 | 33 | 370.4 |
| 20260906203417 | 85 | 181 | 1.0 | 5.0 | 0.00 | 0.00 | 0.00 | 34 | 370.5 |
| 20260906203402 | 85 | 129 | 1.0 | 7.0 | 0.00 | 0.00 | 0.00 | 32 | 370.4 |
| 20260906202335 | 85 | 133 | 1.0 | 5.0 | 0.00 | 0.00 | 0.00 | 35 | 370.5 |
| 20260906201834 | 84 | 133 | 0.0 | 4.0 | 0.00 | 0.00 | 0.00 | 35 | 370.5 |
| 20260906201333 | 84 | 188 | 2.0 | 4.0 | 0.00 | 0.00 | 0.00 | 37 | 370.5 |
| 20260906200834 | 84 | 173 | 2.0 | 4.0 | 0.00 | 0.00 | 0.00 | 36 | 370.6 |
| 20260906200334 | 84 | 201 | 0.0 | 6.0 | 0.00 | 0.00 | 0.00 | 37 | 370.8 |
| 20260906200139 | 84 | 109 | 2.0 | 6.0 | 0.00 | 0.00 | 0.00 | 36 | 370.6 |
| 20260906195327 | 84 | 166 | 0.0 | 4.0 | 0.00 | 0.00 | 0.00 | 36 | 370.6 |
| 20260906194819 | 83 | 140 | 2.0 | 4.0 | 0.00 | 0.00 | 0.00 | 36 | 370.8 |
| 20260906194317 | 83 | 185 | 0.0 | 3.0 | 0.00 | 0.00 | 0.00 | 35 | 370.9 |
| 20260906193813 | 83 | 195 | 0.0 | 3.0 | 0.00 | 0.00 | 0.00 | 38 | 370.9 |
| 20260906193311 | 82 | 184 | 0.0 | 3.0 | 0.00 | 0.00 | 0.00 | 40 | 370.9 |
| 20260906192806 | 82 | 132 | 0.0 | 5.0 | 0.00 | 0.00 | 0.00 | 39 | 371.0 |
| 20260906192307 | 82 | 151 | 0.0 | 5.0 | 0.00 | 0.00 | 0.00 | 39 | 371.1 |
| 20260906191805 | 81 | 247 | 2.0 | 4.0 | 0.00 | 0.00 | 0.00 | 42 | 371.2 |
| 20260906191554 | 81 | 119 | 0.0 | 4.0 | 0.00 | 0.00 | 0.00 | 39 | 371.2 |
| 20260906190803 | 81 | 353 | 1.0 | 4.0 | 0.00 | 0.00 | 0.00 | 44 | 371.2 |
| 20260906190305 | 81 | 242 | 0.0 | 4.0 | 0.00 | 0.00 | 0.00 | 42 | 371.3 |
| 20260906185803 | 81 | 160 | 0.0 | 2.0 | 0.00 | 0.00 | 0.00 | 43 | 371.3 |
| 20260906185306 | 80 | 319 | 0.0 | 3.0 | 0.00 | 0.00 | 0.00 | 41 | 371.5 |
| 20260906184805 | 80 | 160 | 0.0 | 3.0 | 0.00 | 0.00 | 0.00 | 41 | 371.7 |
| 20260906184556 | 80 | 2 | 0.0 | 2.0 | 0.00 | 0.00 | 0.00 | 40 | 371.9 |
| 20260906183804 | 79 | 243 | 0.0 | 0.0 | 0.00 | 0.00 | 0.00 | 46 | 371.9 |
| 20260906183305 | 78 | 312 | 0.0 | 9.0 | 0.00 | 0.00 | 0.00 | 46 | 372.2 |
| 20260906182804 | 78 | 233 | 0.0 | 9.0 | 0.00 | 0.00 | 0.00 | 48 | 372.2 |
| 20260906182306 | 77 | 180 | 0.0 | 5.0 | 0.00 | 0.00 | 0.00 | 53 | 372.3 |
| 20260906181803 | 76 | 147 | 0.0 | 5.0 | 0.00 | 0.00 | 0.00 | 53 | 372.4 |
| 20260906181302 | 76 | 246 | 0.0 | 4.0 | 0.00 | 0.00 | 0.00 | 50 | 372.4 |
| 20260906180803 | 77 | 184 | 2.0 | 5.0 | 0.00 | 0.00 | 0.00 | 48 | 372.5 |
| 20260906180303 | 77 | 167 | 1.0 | 5.0 | 0.00 | 0.00 | 0.00 | 50 | 372.6 |
| 20260906175757 | 76 | 229 | 0.0 | 2.0 | 0.00 | 0.00 | 0.00 | 50 | 372.7 |
| 20260906175257 | 75 | 156 | 0.0 | 2.0 | 0.00 | 0.00 | 0.00 | 52 | 372.8 |
| 20260906175047 | 75 | 191 | 0.0 | 3.0 | 0.00 | 0.00 | 0.00 | 54 | 373.0 |
| 20260906174256 | 74 | 315 | 0.0 | 3.0 | 0.00 | 0.00 | 0.00 | 53 | 373.3 |
| 20260906174043 | 74 | 278 | 0.0 | 3.0 | 0.00 | 0.00 | 0.00 | 54 | 373.3 |
| 20260906173256 | 74 | 253 | 0.0 | 2.0 | 0.00 | 0.00 | 0.00 | 55 | 373.4 |
| 20260906172758 | 74 | 14 | 0.0 | 1.0 | 0.00 | 0.00 | 0.00 | 55 | 373.4 |
| 20260906172258 | 73 | 357 | 0.0 | 1.0 | 0.00 | 0.00 | 0.00 | 57 | 373.3 |
| 20260906171754 | 73 | 89 | 0.0 | 1.0 | 0.00 | 0.00 | 0.00 | 59 | 373.4 |
| 20260906171255 | 72 | 101 | 0.0 | 4.0 | 0.00 | 0.00 | 0.00 | 59 | 373.5 |
| 20260906171059 | 72 | 298 | 0.0 | 4.0 | 0.00 | 0.00 | 0.00 | 57 | 373.7 |
| 20260906170254 | 71 | 221 | 0.0 | 0.0 | 0.00 | 0.00 | 0.00 | 61 | 373.7 |
| 20260906170050 | 70 | 168 | 0.0 | 2.0 | 0.00 | 0.00 | 0.00 | 61 | 373.8 |
| 20260906165255 | 70 | 302 | 0.0 | 3.0 | 0.00 | 0.00 | 0.00 | 61 | 373.8 |
| 20260906164754 | 70 | 290 | 0.0 | 3.0 | 0.00 | 0.00 | 0.00 | 62 | 374.0 |
| 20260906164254 | 69 | 26 | 0.0 | 3.0 | 0.00 | 0.00 | 0.00 | 63 | 374.0 |
| 20260906163756 | 69 | 356 | 0.0 | 3.0 | 0.00 | 0.00 | 0.00 | 65 | 374.0 |
| 20260906163257 | 69 | 28 | 0.0 | 3.0 | 0.00 | 0.00 | 0.00 | 63 | 374.0 |
| 20260906162755 | 68 | 349 | 0.0 | 5.0 | 0.00 | 0.00 | 0.00 | 66 | 373.9 |
| 20260906162256 | 68 | 316 | 0.0 | 5.0 | 0.00 | 0.00 | 0.00 | 65 | 373.8 |
| 20260906161751 | 68 | 335 | 0.0 | 1.0 | 0.00 | 0.00 | 0.00 | 66 | 373.8 |
| 20260906161248 | 67 | 160 | 0.0 | 3.0 | 0.00 | 0.00 | 0.00 | 67 | 373.8 |
| 20260906160741 | 67 | 9 | 1.0 | 3.0 | 0.00 | 0.00 | 0.00 | 66 | 373.8 |
| 20260906160234 | 67 | 319 | 0.0 | 2.0 | 0.00 | 0.00 | 0.00 | 67 | 373.9 |
| 20260906155733 | 67 | 24 | 0.0 | 2.0 | 0.00 | 0.00 | 0.00 | 69 | 373.9 |
| 20260906155235 | 66 | 37 | 0.0 | 2.0 | 0.00 | 0.00 | 0.00 | 69 | 374.0 |
| 20260906154734 | 65 | 20 | 0.0 | 2.0 | 0.00 | 0.00 | 0.00 | 70 | 374.0 |
| 20260906154231 | 65 | 10 | 0.0 | 4.0 | 0.00 | 0.00 | 0.00 | 72 | 374.0 |
| 20260906153731 | 64 | 3 | 0.0 | 4.0 | 0.00 | 0.00 | 0.00 | 74 | 374.0 |
| 20260906153231 | 63 | 16 | 0.0 | 2.0 | 0.00 | 0.00 | 0.00 | 74 | 373.9 |
| 20260906152732 | 63 | 7 | 0.0 | 4.0 | 0.00 | 0.00 | 0.00 | 75 | 374.0 |
| 20260906152235 | 62 | 23 | 2.0 | 4.0 | 0.00 | 0.00 | 0.00 | 76 | 374.1 |
| 20260906151733 | 62 | 16 | 0.0 | 4.0 | 0.00 | 0.00 | 0.00 | 77 | 374.1 |
| 20260906151524 | 61 | 356 | 1.0 | 4.0 | 0.00 | 0.00 | 0.00 | 77 | 374.1 |
| 20260906150735 | 61 | 14 | 0.0 | 2.0 | 0.00 | 0.00 | 0.00 | 78 | 374.1 |
| 20260906150234 | 60 | 30 | 0.0 | 4.0 | 0.00 | 0.00 | 0.00 | 79 | 374.1 |
| 20260906145734 | 60 | 7 | 1.0 | 4.0 | 0.00 | 0.00 | 0.00 | 79 | 374.1 |
| 20260906145234 | 60 | 43 | 1.0 | 3.0 | 0.00 | 0.00 | 0.00 | 79 | 374.1 |
| 20260906144734 | 60 | 41 | 0.0 | 5.0 | 0.00 | 0.00 | 0.00 | 79 | 374.2 |
| 20260906144227 | 60 | 28 | 2.0 | 5.0 | 0.00 | 0.00 | 0.00 | 79 | 374.3 |
| 20260906144018 | 60 | 18 | 0.0 | 3.0 | 0.00 | 0.00 | 0.00 | 81 | 374.2 |
| 20260906143225 | 60 | 30 | 0.0 | 4.0 | 0.00 | 0.00 | 0.00 | 83 | 374.1 |
| 20260906142725 | 59 | 14 | 1.0 | 4.0 | 0.00 | 0.00 | 0.00 | 83 | 374.1 |
| 20260906142220 | 59 | 27 | 0.0 | 5.0 | 0.00 | 0.00 | 0.00 | 84 | 374.1 |
| 20260906141720 | 58 | 33 | 2.0 | 5.0 | 0.00 | 0.00 | 0.00 | 85 | 374.2 |
| 20260906141211 | 58 | 3 | 0.0 | 2.0 | 0.00 | 0.00 | 0.00 | 86 | 374.1 |
| 20260906140717 | 57 | 349 | 0.0 | 2.0 | 0.00 | 0.00 | 0.00 | 86 | 374.2 |
| 20260906140205 | 57 | 30 | 0.0 | 1.0 | 0.00 | 0.00 | 0.00 | 86 | 374.1 |
| 20260906135704 | 56 | 9 | 0.0 | 1.0 | 0.00 | 0.00 | 0.00 | 87 | 374.1 |
| 20260906135456 | 56 | 6 | 0.0 | 1.0 | 0.00 | 0.00 | 0.00 | 87 | 374.1 |
| 20260906134707 | 55 | 33 | 0.0 | 1.0 | 0.00 | 0.00 | 0.00 | 87 | 374.1 |
| 20260906134204 | 55 | 14 | 0.0 | 0.0 | 0.00 | 0.00 | 0.00 | 87 | 374.1 |
| 20260906133705 | 54 | 14 | 0.0 | 0.0 | 0.00 | 0.00 | 0.00 | 86 | 374.2 |
| 20260906133205 | 54 | 14 | 0.0 | 0.0 | 0.00 | 0.00 | 0.00 | 85 | 374.1 |
| 20260906132952 | 54 | 14 | 0.0 | 0.0 | 0.00 | 0.00 | 0.00 | 86 | 374.1 |
| 20260906132205 | 54 | 14 | 0.0 | 0.0 | 0.00 | 0.00 | 0.00 | 85 | 374.0 |
| 20260906131707 | 54 | 14 | 0.0 | 0.0 | 0.00 | 0.00 | 0.00 | 85 | 374.1 |
| 20260906131453 | 54 | 9 | 0.0 | 0.0 | 0.00 | 0.00 | 0.00 | 85 | 374.1 |
| 20260906130706 | 54 | 7 | 0.0 | 1.0 | 0.00 | 0.00 | 0.00 | 85 | 374.0 |
| 20260906130204 | 54 | 33 | 0.0 | 2.0 | 0.00 | 0.00 | 0.00 | 85 | 373.9 |
| 20260906125703 | 54 | 18 | 0.0 | 2.0 | 0.00 | 0.00 | 0.00 | 86 | 373.8 |
| 20260906125205 | 53 | 28 | 0.0 | 0.0 | 0.00 | 0.00 | 0.00 | 85 | 373.8 |
| 20260906124703 | 53 | 11 | 0.0 | 0.0 | 0.00 | 0.00 | 0.00 | 85 | 373.8 |
| 20260906124204 | 52 | 34 | 0.0 | 0.0 | 0.00 | 0.00 | 0.00 | 85 | 373.8 |
| 20260906123703 | 52 | 33 | 0.0 | 0.0 | 0.00 | 0.00 | 0.00 | 84 | 373.8 |
| 20260906123202 | 52 | 33 | 0.0 | 0.0 | 0.00 | 0.00 | 0.00 | 83 | 373.8 |
| 20260906122703 | 52 | 33 | 0.0 | 0.0 | 0.00 | 0.00 | 0.00 | 83 | 373.7 |
| 20260906122453 | 52 | 33 | 0.0 | 0.0 | 0.00 | 0.00 | 0.00 | 82 | 373.5 |
| 20260906121703 | 52 | 41 | 0.0 | 0.0 | 0.00 | 0.00 | 0.00 | 82 | 373.7 |
| 20260906121201 | 52 | 41 | 0.0 | 0.0 | 0.00 | 0.00 | 0.00 | 81 | 373.5 |
| 20260906120656 | 52 | 41 | 0.0 | 0.0 | 0.00 | 0.00 | 0.00 | 81 | 373.5 |
| 20260906120152 | 53 | 41 | 0.0 | 0.0 | 0.00 | 0.00 | 0.00 | 80 | 373.5 |
| 20260906115649 | 53 | 41 | 0.0 | 0.0 | 0.00 | 0.00 | 0.00 | 80 | 373.5 |
| 20260906115148 | 53 | 41 | 0.0 | 0.0 | 0.00 | 0.00 | 0.00 | 80 | 373.5 |
| 20260906114936 | 53 | 41 | 0.0 | 0.0 | 0.00 | 0.00 | 0.00 | 79 | 373.5 |
| 20260906114147 | 53 | 41 | 0.0 | 0.0 | 0.00 | 0.00 | 0.00 | 79 | 373.7 |
| 20260906113938 | 54 | 41 | 0.0 | 0.0 | 0.00 | 0.00 | 0.00 | 79 | 373.7 |
| 20260906113148 | 54 | 44 | 0.0 | 0.0 | 0.00 | 0.00 | 0.00 | 79 | 373.5 |
| 20260906112652 | 54 | 46 | 0.0 | 0.0 | 0.00 | 0.00 | 0.00 | 80 | 373.5 |
| 20260906112432 | 54 | 46 | 0.0 | 0.0 | 0.00 | 0.00 | 0.00 | 80 | 373.5 |
| 20260906111640 | 54 | 46 | 0.0 | 0.0 | 0.00 | 0.00 | 0.00 | 80 | 373.4 |
| 20260906111137 | 53 | 46 | 0.0 | 0.0 | 0.00 | 0.00 | 0.00 | 80 | 373.3 |
| 20260906110635 | 53 | 46 | 0.0 | 0.0 | 0.00 | 0.00 | 0.00 | 80 | 373.4 |
| 20260906110443 | 54 | 46 | 0.0 | 0.0 | 0.00 | 0.00 | 0.00 | 80 | 373.4 |
| 20260906105634 | 54 | 46 | 0.0 | 0.0 | 0.00 | 0.00 | 0.00 | 80 | 373.4 |
| 20260906105134 | 54 | 46 | 0.0 | 0.0 | 0.00 | 0.00 | 0.00 | 80 | 373.3 |
| 20260906104633 | 54 | 46 | 0.0 | 0.0 | 0.00 | 0.00 | 0.00 | 80 | 373.4 |
| 20260906104135 | 54 | 46 | 0.0 | 0.0 | 0.00 | 0.00 | 0.00 | 78 | 373.4 |
| 20260906103635 | 54 | 46 | 0.0 | 0.0 | 0.00 | 0.00 | 0.00 | 79 | 373.4 |
| 20260906103135 | 54 | 46 | 0.0 | 0.0 | 0.00 | 0.00 | 0.00 | 79 | 373.3 |
| 20260906102626 | 54 | 46 | 0.0 | 0.0 | 0.00 | 0.00 | 0.00 | 78 | 373.3 |
| 20260906102118 | 55 | 46 | 0.0 | 0.0 | 0.00 | 0.00 | 0.00 | 77 | 373.3 |
| 20260906101618 | 55 | 46 | 0.0 | 0.0 | 0.00 | 0.00 | 0.00 | 77 | 373.4 |
| 20260906101115 | 56 | 46 | 0.0 | 0.0 | 0.00 | 0.00 | 0.00 | 76 | 373.2 |
| 20260906100610 | 56 | 46 | 0.0 | 0.0 | 0.00 | 0.00 | 0.00 | 76 | 373.3 |
| 20260906100114 | 56 | 46 | 0.0 | 0.0 | 0.00 | 0.00 | 0.00 | 76 | 373.3 |
| 20260906095610 | 56 | 46 | 0.0 | 0.0 | 0.00 | 0.00 | 0.00 | 76 | 373.3 |
| 20260906095108 | 56 | 46 | 0.0 | 0.0 | 0.00 | 0.00 | 0.00 | 76 | 373.4 |
| 20260906094605 | 56 | 46 | 0.0 | 0.0 | 0.00 | 0.00 | 0.00 | 75 | 373.3 |
| 20260906094103 | 56 | 46 | 0.0 | 0.0 | 0.00 | 0.00 | 0.00 | 73 | 373.4 |
| 20260906093603 | 56 | 46 | 0.0 | 0.0 | 0.00 | 0.00 | 0.00 | 73 | 373.3 |
| 20260906093103 | 57 | 46 | 0.0 | 0.0 | 0.00 | 0.00 | 0.00 | 73 | 373.2 |
| 20260906092603 | 57 | 46 | 0.0 | 0.0 | 0.00 | 0.00 | 0.00 | 73 | 373.1 |
| 20260906092056 | 57 | 46 | 0.0 | 0.0 | 0.00 | 0.00 | 0.00 | 73 | 373.1 |
| 20260906091840 | 57 | 46 | 0.0 | 0.0 | 0.00 | 0.00 | 0.00 | 73 | 373.1 |
| 20260906091336 | 57 | 46 | 0.0 | 2.0 | 0.00 | 0.00 | 0.00 | 72 | 372.8 |
| 20260906090544 | 57 | 46 | 0.0 | 3.0 | 0.00 | 0.00 | 0.00 | 72 | 372.7 |
| 20260906090045 | 58 | 7 | 0.0 | 3.0 | 0.00 | 0.00 | 0.00 | 72 | 372.5 |
| 20260906085544 | 58 | 10 | 0.0 | 3.0 | 0.00 | 0.00 | 0.00 | 71 | 372.4 |
| 20260906085336 | 59 | 7 | 0.0 | 1.0 | 0.00 | 0.00 | 0.00 | 70 | 372.6 |
| 20260906084544 | 59 | 11 | 0.0 | 1.0 | 0.00 | 0.00 | 0.00 | 70 | 372.5 |
| 20260906084044 | 59 | 14 | 0.0 | 0.0 | 0.00 | 0.00 | 0.00 | 68 | 372.6 |
| 20260906083629 | 60 | 27 | 0.0 | 2.0 | 0.00 | 0.00 | 0.00 | 66 | 372.6 |
| 20260906083615 | 60 | 14 | 0.0 | 0.0 | 0.00 | 0.00 | 0.00 | 68 | 372.6 |
| 20260906082544 | 61 | 17 | 0.0 | 2.0 | 0.00 | 0.00 | 0.00 | 66 | 372.6 |
| 20260906082043 | 61 | 10 | 0.0 | 4.0 | 0.00 | 0.00 | 0.00 | 65 | 372.6 |
| 20260906081545 | 61 | 44 | 0.0 | 4.0 | 0.00 | 0.00 | 0.00 | 64 | 372.6 |
| 20260906081046 | 61 | 3 | 1.0 | 5.0 | 0.00 | 0.00 | 0.00 | 64 | 372.6 |
| 20260906080545 | 62 | 28 | 1.0 | 6.0 | 0.00 | 0.00 | 0.00 | 64 | 372.6 |
| 20260906080053 | 61 | 30 | 0.0 | 6.0 | 0.00 | 0.00 | 0.00 | 64 | 372.6 |
| 20260906075543 | 61 | 40 | 0.0 | 5.0 | 0.00 | 0.00 | 0.00 | 63 | 372.6 |
| 20260906075042 | 61 | 20 | 2.0 | 6.0 | 0.00 | 0.00 | 0.00 | 61 | 372.6 |
| 20260906074543 | 61 | 18 | 4.0 | 6.0 | 0.00 | 0.00 | 0.00 | 60 | 372.5 |
| 20260906074043 | 61 | 20 | 3.0 | 5.0 | 0.00 | 0.00 | 0.00 | 59 | 372.5 |
| 20260906073543 | 60 | 4 | 2.0 | 5.0 | 0.00 | 0.00 | 0.00 | 59 | 372.6 |
| 20260906073041 | 60 | 33 | 1.0 | 4.0 | 0.00 | 0.00 | 0.00 | 60 | 372.6 |
| 20260906072545 | 60 | 36 | 0.0 | 0.0 | 0.00 | 0.00 | 0.00 | 60 | 372.6 |
| 20260906072034 | 60 | 14 | 0.0 | 0.0 | 0.00 | 0.00 | 0.00 | 60 | 372.6 |
| 20260906071822 | 60 | 13 | 0.0 | 2.0 | 0.00 | 0.00 | 0.00 | 59 | 372.6 |
| 20260906071036 | 61 | 7 | 0.0 | 3.0 | 0.00 | 0.00 | 0.00 | 58 | 372.7 |
| 20260906070536 | 62 | 2 | 1.0 | 3.0 | 0.00 | 0.00 | 0.00 | 54 | 372.7 |
| 20260906070035 | 0 | 0.0 | 0.0 | 0.00 | 0.00 | 0.00 | 372.6 | ||
| 20260906065531 | 0 | 0.0 | 0.0 | 0.00 | 0.00 | 0.00 | 372.6 | ||
| 20260906065030 | 0 | 0.0 | 0.0 | 0.00 | 0.00 | 0.00 | 372.5 | ||
| 20260906064524 | 0 | 0.0 | 0.0 | 0.00 | 0.00 | 0.00 | 372.6 | ||
| 20260906064016 | 0 | 0.0 | 0.0 | 0.00 | 0.00 | 0.00 | 372.5 | ||
| 20260906063802 | 0 | 0.0 | 0.0 | 0.00 | 0.00 | 0.00 | |||
| 20260906063233 | 60 | 356 | 4.0 | 6.0 | 0.00 | 0.00 | 0.00 | 59 | 372.5 |
| 20260906062735 | 60 | 356 | 4.0 | 6.0 | 0.00 | 0.00 | 0.00 | 59 | 372.5 |
| 20260906062235 | 61 | 21 | 3.0 | 5.0 | 0.00 | 0.00 | 0.00 | 58 | 372.4 |
| 20260906061735 | 62 | 13 | 2.0 | 4.0 | 0.00 | 0.00 | 0.00 | 57 | 372.6 |
| 20260906061235 | 62 | 39 | 2.0 | 4.0 | 0.00 | 0.00 | 0.00 | 56 | 372.7 |
| 20260906060735 | 61 | 33 | 0.0 | 2.0 | 0.00 | 0.00 | 0.00 | 59 | 372.7 |
| 20260906060315 | 62 | 235 | 0.0 | 0.0 | 0.00 | 0.00 | 0.00 | 59 | 372.7 |
| 20260906060302 | 61 | 254 | 0.0 | 0.0 | 0.00 | 0.00 | 0.00 | 58 | 372.8 |
| 20260906055235 | 62 | 235 | 0.0 | 0.0 | 0.00 | 0.00 | 0.00 | 58 | 372.6 |
| 20260906054731 | 63 | 235 | 0.0 | 0.0 | 0.00 | 0.00 | 0.00 | 54 | 372.7 |
| 20260906054232 | 63 | 225 | 0.0 | 0.0 | 0.00 | 0.00 | 0.00 | 51 | 372.7 |
| 20260906053731 | 63 | 225 | 0.0 | 0.0 | 0.00 | 0.00 | 0.00 | 50 | 372.8 |
| 20260906053228 | 64 | 225 | 0.0 | 0.0 | 0.00 | 0.00 | 0.00 | 51 | 373.0 |
| 20260906052729 | 65 | 225 | 0.0 | 0.0 | 0.00 | 0.00 | 0.00 | 52 | 372.8 |
| 20260906052259 | 66 | 232 | 0.0 | 0.0 | 0.00 | 0.00 | 0.00 | 52 | 372.6 |
| 20260906052248 | 65 | 232 | 0.0 | 0.0 | 0.00 | 0.00 | 0.00 | 51 | 372.7 |
| 20260906051210 | 66 | 232 | 0.0 | 0.0 | 0.00 | 0.00 | 0.00 | 46 | 372.7 |
| 20260906050705 | 66 | 232 | 0.0 | 0.0 | 0.00 | 0.00 | 0.00 | 47 | 372.6 |
| 20260906050202 | 66 | 232 | 0.0 | 0.0 | 0.00 | 0.00 | 0.00 | 45 | 372.6 |
| 20260906045703 | 66 | 232 | 0.0 | 2.0 | 0.00 | 0.00 | 0.00 | 45 | 372.6 |
| 20260906045202 | 66 | 232 | 0.0 | 6.0 | 0.00 | 0.00 | 0.00 | 46 | 372.7 |
| 20260906044706 | 65 | 221 | 4.0 | 6.0 | 0.00 | 0.00 | 0.00 | 46 | 372.7 |
| 20260906044205 | 65 | 284 | 3.0 | 5.0 | 0.00 | 0.00 | 0.00 | 47 | 372.5 |
| 20260906043706 | 65 | 142 | 0.0 | 3.0 | 0.00 | 0.00 | 0.00 | 47 | 372.6 |
| 20260906043206 | 65 | 184 | 0.0 | 0.0 | 0.00 | 0.00 | 0.00 | 47 | 372.3 |
| 20260906042704 | 66 | 346 | 0.0 | 0.0 | 0.00 | 0.00 | 0.00 | 48 | 371.9 |
| 20260906042203 | 67 | 4 | 0.0 | 0.0 | 0.00 | 0.00 | 0.00 | 43 | 371.8 |
| 20260906041703 | 68 | 18 | 0.0 | 0.0 | 0.00 | 0.00 | 0.00 | 43 | 371.8 |
| 20260906041203 | 69 | 20 | 0.0 | 2.0 | 0.00 | 0.00 | 0.00 | 39 | 371.8 |
| 20260906040953 | 69 | 14 | 0.0 | 3.0 | 0.00 | 0.00 | 0.00 | 39 | 371.7 |
| 20260906040203 | 69 | 16 | 0.0 | 3.0 | 0.00 | 0.00 | 0.00 | 39 | 371.5 |
| 20260906035952 | 70 | 89 | 0.0 | 4.0 | 0.00 | 0.00 | 0.00 | 39 | 371.2 |
| 20260906035454 | 70 | 20 | 0.0 | 4.0 | 0.00 | 0.00 | 0.00 | 37 | 371.2 |
| 20260906034702 | 70 | 20 | 0.0 | 6.0 | 0.00 | 0.00 | 0.00 | 37 | 371.3 |
| 20260906034454 | 70 | 16 | 1.0 | 6.0 | 0.00 | 0.00 | 0.00 | 37 | 371.3 |
| 20260906033702 | 70 | 33 | 1.0 | 4.0 | 0.00 | 0.00 | 0.00 | 37 | 371.3 |
| 20260906033451 | 70 | 20 | 0.0 | 5.0 | 0.00 | 0.00 | 0.00 | 38 | 371.3 |
| 20260906032704 | 69 | 39 | 0.0 | 5.0 | 0.00 | 0.00 | 0.00 | 39 | 371.3 |
| 20260906032457 | 68 | 235 | 0.0 | 3.0 | 0.00 | 0.00 | 0.00 | 40 | 371.3 |
| 20260906031703 | 69 | 36 | 0.0 | 6.0 | 0.00 | 0.00 | 0.00 | 40 | 371.2 |
| 20260906031202 | 69 | 357 | 2.0 | 6.0 | 0.00 | 0.00 | 0.00 | 39 | 371.2 |
| 20260906030702 | 69 | 28 | 0.0 | 3.0 | 0.00 | 0.00 | 0.00 | 39 | 371.1 |
| 20260906030202 | 69 | 34 | 1.0 | 3.0 | 0.00 | 0.00 | 0.00 | 39 | 371.0 |
| 20260906025704 | 70 | 16 | 0.0 | 3.0 | 0.00 | 0.00 | 0.00 | 41 | 370.9 |
| 20260906025203 | 70 | 39 | 0.0 | 6.0 | 0.00 | 0.00 | 0.00 | 38 | 370.9 |
| 20260906024703 | 70 | 4 | 4.0 | 6.0 | 0.00 | 0.00 | 0.00 | 39 | 370.8 |
| 20260906024203 | 69 | 36 | 2.0 | 6.0 | 0.00 | 0.00 | 0.00 | 41 | 370.8 |
| 20260906023704 | 68 | 27 | 1.0 | 3.0 | 0.00 | 0.00 | 0.00 | 42 | 370.9 |
| 20260906023451 | 68 | 10 | 0.0 | 0.0 | 0.00 | 0.00 | 0.00 | 43 | 370.9 |
| 20260906022945 | 68 | 10 | 0.0 | 0.0 | 0.00 | 0.00 | 0.00 | 42 | 370.9 |
| 20260906022152 | 68 | 10 | 0.0 | 0.0 | 0.00 | 0.00 | 0.00 | 42 | 370.8 |
| 20260906021650 | 68 | 6 | 0.0 | 0.0 | 0.00 | 0.00 | 0.00 | 44 | 370.9 |
| 20260906021144 | 68 | 6 | 0.0 | 0.0 | 0.00 | 0.00 | 0.00 | 42 | 370.6 |
| 20260906020634 | 69 | 332 | 0.0 | 0.0 | 0.00 | 0.00 | 0.00 | 43 | 370.6 |
| 20260906020135 | 70 | 333 | 0.0 | 4.0 | 0.00 | 0.00 | 0.00 | 40 | 370.6 |
| 20260906015630 | 70 | 27 | 1.0 | 4.0 | 0.00 | 0.00 | 0.00 | 38 | 370.5 |
| 20260906015131 | 71 | 37 | 0.0 | 3.0 | 0.00 | 0.00 | 0.00 | 37 | 370.4 |
| 20260906014632 | 71 | 16 | 0.0 | 4.0 | 0.00 | 0.00 | 0.00 | 37 | 370.3 |
| 20260906014132 | 72 | 24 | 2.0 | 4.0 | 0.00 | 0.00 | 0.00 | 36 | 370.2 |
| 20260906013631 | 72 | 31 | 0.0 | 1.0 | 0.00 | 0.00 | 0.00 | 35 | 370.2 |
| 20260906013132 | 73 | 26 | 0.0 | 1.0 | 0.00 | 0.00 | 0.00 | 35 | 370.2 |
| 20260906012632 | 74 | 40 | 0.0 | 3.0 | 0.00 | 0.00 | 0.00 | 34 | 370.3 |
| 20260906012134 | 74 | 2 | 0.0 | 5.0 | 0.00 | 0.00 | 0.00 | 33 | 370.2 |
| 20260906011632 | 75 | 6 | 2.0 | 7.0 | 0.00 | 0.00 | 0.00 | 32 | 370.3 |
| 20260906011131 | 76 | 53 | 3.0 | 9.0 | 0.00 | 0.00 | 0.00 | 31 | 370.2 |
| 20260906010631 | 77 | 349 | 6.0 | 10.0 | 0.00 | 0.00 | 0.00 | 31 | 370.1 |
| 20260906010132 | 77 | 325 | 5.0 | 12.0 | 0.00 | 0.00 | 0.00 | 29 | 370.2 |
| 20260906005632 | 77 | 2 | 7.0 | 12.0 | 0.00 | 0.00 | 0.00 | 30 | 370.2 |
| 20260906005421 | 77 | 339 | 7.0 | 10.0 | 0.00 | 0.00 | 0.00 | 30 | 370.3 |
| 20260906004920 | 77 | 339 | 7.0 | 10.0 | 0.00 | 0.00 | 0.00 | 31 | 370.2 |
| 20260906004132 | 77 | 343 | 5.0 | 7.0 | 0.00 | 0.00 | 0.00 | 30 | 370.3 |
| 20260906003631 | 78 | 2 | 4.0 | 7.0 | 0.00 | 0.00 | 0.00 | 30 | 370.4 |
| 20260906003136 | 79 | 339 | 4.0 | 7.0 | 0.00 | 0.00 | 0.00 | 30 | 370.3 |
| 20260906002634 | 79 | 335 | 5.0 | 9.0 | 0.00 | 0.00 | 0.00 | 28 | 370.3 |
| 20260906002134 | 79 | 335 | 4.0 | 9.0 | 0.00 | 0.00 | 0.00 | 30 | 370.2 |
| 20260906001923 | 79 | 339 | 4.0 | 7.0 | 0.00 | 0.00 | 0.00 | 28 | 370.2 |
| 20260906001144 | 79 | 342 | 4.0 | 7.0 | 0.00 | 0.00 | 0.00 | 29 | 370.3 |
| 20260906000634 | 79 | 343 | 5.0 | 7.0 | 0.00 | 0.00 | 0.00 | 29 | 370.2 |
| 20260906000134 | 79 | 336 | 3.0 | 6.0 | 0.00 | 0.00 | 0.00 | 33 | 370.2 |
| 20260905235935 | 80 | 349 | 0.0 | 0.0 | 0.00 | 0.00 | 0.00 | 32 | 370.1 |
| 20260905235132 | 80 | 357 | 0.0 | 1.0 | 0.00 | 0.00 | 0.00 | 29 | 370.1 |
| 20260905234631 | 80 | 338 | 0.0 | 1.0 | 0.00 | 0.00 | 0.00 | 30 | 370.0 |
| 20260905234132 | 80 | 345 | 0.0 | 4.0 | 0.00 | 0.00 | 0.00 | 30 | 370.0 |
| 20260905233632 | 81 | 359 | 0.0 | 4.0 | 0.00 | 0.00 | 0.00 | 29 | 370.0 |
| 20260905233132 | 81 | 353 | 0.0 | 4.0 | 0.00 | 0.00 | 0.00 | 29 | 370.0 |
| 20260905232632 | 82 | 352 | 0.0 | 4.0 | 0.00 | 0.00 | 0.00 | 28 | 370.0 |
| 20260905232422 | 83 | 343 | 1.0 | 3.0 | 0.00 | 0.00 | 0.00 | 26 | 370.0 |
| 20260905231633 | 84 | 349 | 0.0 | 4.0 | 0.00 | 0.00 | 0.00 | 24 | 369.8 |
| 20260905231515 | 86 | 0 | 1.0 | 5.0 | 0.00 | 0.00 | 0.00 | 21 | 369.8 |
| 20260905231501 | 85 | 0 | 2.0 | 5.0 | 0.00 | 0.00 | 0.00 | 24 | 369.8 |
| 20260905230131 | 88 | 350 | 0.0 | 2.0 | 0.00 | 0.00 | 0.00 | 21 | 369.7 |
| 20260905225631 | 88 | 352 | 1.0 | 2.0 | 0.00 | 0.00 | 0.00 | 20 | 369.7 |
| 20260905225133 | 88 | 30 | 0.0 | 4.0 | 0.00 | 0.00 | 0.00 | 21 | 369.6 |
| 20260905224634 | 88 | 359 | 0.0 | 4.0 | 0.00 | 0.00 | 0.00 | 20 | 369.7 |
| 20260905224135 | 89 | 177 | 0.0 | 1.0 | 0.00 | 0.00 | 0.00 | 19 | 369.6 |
| 20260905223634 | 89 | 164 | 0.0 | 6.0 | 0.00 | 0.00 | 0.00 | 19 | 369.7 |
| 20260905223131 | 89 | 28 | 0.0 | 6.0 | 0.00 | 0.00 | 0.00 | 20 | 369.7 |
| 20260905222631 | 89 | 321 | 0.0 | 7.0 | 0.00 | 0.00 | 0.00 | 19 | 369.7 |
| 20260905222130 | 89 | 14 | 2.0 | 7.0 | 0.00 | 0.00 | 0.00 | 20 | 369.7 |
| 20260905221631 | 88 | 323 | 0.0 | 4.0 | 0.00 | 0.00 | 0.00 | 20 | 369.7 |
| 20260905221213 | 86 | 322 | 4.0 | 5.0 | 0.00 | 0.00 | 0.00 | 21 | 369.8 |
| 20260905221153 | 87 | 240 | 0.0 | 5.0 | 0.00 | 0.00 | 0.00 | 21 | 369.7 |
| 20260905220123 | 87 | 347 | 0.0 | 4.0 | 0.00 | 0.00 | 0.00 | 19 | 369.8 |
| 20260905215624 | 88 | 18 | 0.0 | 5.0 | 0.00 | 0.00 | 0.00 | 21 | 370.0 |
| 20260905215124 | 88 | 40 | 1.0 | 5.0 | 0.00 | 0.00 | 0.00 | 18 | 370.0 |
| 20260905214623 | 88 | 24 | 0.0 | 5.0 | 0.00 | 0.00 | 0.00 | 21 | 370.0 |
| 20260905214123 | 88 | 13 | 1.0 | 5.0 | 0.00 | 0.00 | 0.00 | 19 | 370.2 |